Flag Weather past 2 weeks in Abbotsford, British Columbia, Canada

Now
45 °F

Light rain. Fog.


Feels Like: 38 °F
Forecast: 26 / 53 °F
Wind: 13 mph from Southwest

Location: Abbotsford

Current Time: Nov 28, 2014 at 6:01:47 AM

Latest Report: Nov 28, 2014 at 5:00 AM


Visibility: 3 mi

Pressure: 29.52 "Hg

Humidity: 100%

Dew point: 45 °F

Location of AbbotsfordLocation

Historic Weather in Abbotsford — Graph

°F

Abbotsford temperature yesterday

Maximum temperature yesterday: 57 °F (at 1:00 AM)
Minimum temperature yesterday: 52 °F (at 6:00 AM)
Average temperature yesterday: 54 °F

Past Weeks' High & Low Weather Summary

 TemperatureHumidityPressure
High57 °F (Nov 27, 1:00 AM)100% (Nov 20, 6:00 AM)30.58 "Hg (Nov 20, 6:00 AM)
Low25 °F (Nov 16, 3:00 AM)19% (Nov 13, 4:00 PM)29.28 "Hg (Nov 21, 7:00 PM)
Average42 °F75%30.06 "Hg
* Reported Nov 13 5:00 AM — Nov 28 5:00 AM, Abbotsford, Weather by CustomWeather, © 2014

Note: Actual official high and low records may vary slightly from our data, if they occured in-between our weather recording intervals... More about our weather records

Advertising

Abbotsford weather history for previous 24 hours

 ConditionsComfort  
Time TempWeatherWind HumidityBarometerVisibility
5:00 AM
Nov 28
45 °FLight rain. Fog.13 mph100%29.52 "Hg3 mi
4:00 AM50 °FLight rain. Fog.18 mph94%29.49 "Hg3 mi
3:00 AM52 °FLight rain. Fog.18 mph100%29.51 "Hg3 mi
2:00 AM52 °FLight rain. Fog.18 mph100%29.52 "Hg3 mi
1:00 AM54 °FLight rain. Fog.17 mph94%29.53 "Hg3 mi
12:00 AM52 °FLight rain. Overcast.17 mph100%29.54 "Hg3 mi
11:00 PM
Nov 27
54 °FLight rain. Overcast.18 mph94%29.57 "Hg10 mi
10:00 PM52 °FRain. Mostly cloudy.16 mph100%29.59 "Hg10 mi
9:00 PM54 °FLight rain. Overcast.20 mph94%29.61 "Hg10 mi
8:00 PM54 °FLight rain. Mostly cloudy.20 mph94%29.62 "Hg7 mi
7:00 PM54 °FSprinkles. Mostly cloudy.17 mph94%29.63 "Hg10 mi
6:00 PM54 °FSprinkles. Overcast.14 mph94%29.65 "Hg8 mi
5:00 PM54 °FSprinkles. Mostly cloudy.14 mph94%29.66 "Hg10 mi
4:00 PM54 °FSprinkles. Overcast.13 mph94%29.67 "Hg10 mi
3:00 PM55 °FSprinkles. Mostly cloudy.20 mph88%29.67 "Hg20 mi
2:00 PM55 °FPartly sunny.21 mph94%29.68 "Hg15 mi
1:00 PM55 °FOvercast.17 mph88%29.70 "Hg20 mi
12:00 PM55 °FBroken clouds.10 mph94%29.73 "Hg15 mi
11:00 AM54 °FBroken clouds.8 mph100%29.75 "Hg15 mi
10:00 AM54 °FLight rain. Low clouds.12 mph94%29.76 "Hg10 mi
9:00 AM52 °FLight rain. More clouds than sun.9 mph100%29.77 "Hg10 mi
8:00 AM52 °FLight rain. Fog.12 mph100%29.77 "Hg2 mi
7:48 AM52 °FLight rain. Fog.10 mph100%29.76 "Hg2 mi
7:00 AM52 °FLight rain. Overcast.12 mph94%29.76 "Hg10 mi
6:00 AM52 °FSprinkles. Overcast.12 mph94%29.76 "Hg6 mi
Weather by CustomWeather, © 2014

See weather overviewHow to use our weather pages